Location: Ellerstadt
(49.4644°N, 8.2615°E)
Time: 22:48:47
(UTC+00:00)

Cosmos 2333 Rocket - Pass Details

Date: 03 March 2021
Orbit: 837 x 864 km, 70.8° (Epoch: 13 April)

Event Time Altitude Azimuth Distance (km) Brightness Sun altitude
Rises 20:31:37 0° 229° (SW) 3,396 5.6 -31.9°
Reaches altitude 10° 20:34:10 10° 236° (SW) 2,468 4.8 -32.2°
Maximum altitude 20:39:35 44° 308° (NW) 1,169 3.2 -33.0°
Drops below altitude 10° 20:45:03 10° 20° (NNE) 2,499 4.8 -33.7°
Sets 20:47:39 0° 27° (NNE) 3,443 5.5 -34.0°
